ROMMA est une association bénévole à but non lucratif. Votre soutien est indispensable : ADHERER à ROMMA ou FAIRE un DON

Le Versoud - (38, Isère)

Vallée du Grésivaudan (220 m)   Longitude: 05° 51' 44" E   Latitude: 45° 13' 06" N Station partenaire n°6
 

Détail journalier du     <<     >>

Température Humidité Pression Vent Dir Rafale Dir. rafale Ensol.
Heure (°C) (%) (hPa) (km/h) (km/h) (min)
01:00 19.6901008010S0
02:00 19.192100700---0
03:00 18.991100700---0
04:00 18.792100600---0
05:00 18.592100600---0
06:00 18.692100600---0
07:00 18.991100500---0
08:00 19.291100500---0
09:00 20.488100500---0
10:00 21.284100500---0
11:00 22.278100400---0
12:00 22.977100400---0
13:00 22.5811004010SSO0
14:00 23.775100206SO5
15:00 25.661100105SO25
16:00 26.556100002OSO0
17:00 26.36099905ONO0
18:00 25.363999013SSO0
19:00 21.96710019S32SSO0
20:00 18.78710013SE29SSE0
21:00 18.491100200---0
22:00 18.292100200---0
23:00 18.193100200---0
minuit 17.993100100---0

Graphique du 27-07-2019

 

Serveur OMMA